Location: Unspecified
(0.0000°N, 0.0000°E)
Time: 19:27:16
(UTC+00:00)

CUBESAT XI-V - Pass Details

Date: 12 December 2017
Orbit: 670 x 694 km, 97.9° (Epoch: 18 January)

Event Time Altitude Azimuth Distance (km) Brightness Sun altitude
Rises 03:28:17 0° 156° (SSE) 3,019 ? -33.0°
Reaches altitude 10° 03:30:36 10° 149° (SSE) 2,105 ? -32.5°
Enters shadow 03:34:06 38° 108° (ESE) 1,019 ? -31.7°
